Weather History for Denver, CO

Change the Weather History Date:

Sunday, October 6, 2013

  Actual Average Record
Temperature  
Mean Temperature 50 °F 55 °F  
Max Temperature 67 °F 69 °F 87 °F (1975)
Min Temperature 32 °F 40 °F 26 °F (1995)
Degree Days  
Heating Degree Days 15 11  
Month to date heating degree days 85 58  
Since 1 July heating degree days 168 199  
Cooling Degree Days 0 0  
Month to date cooling degree days 0 1  
Year to date cooling degree days 999 765  
Moisture  
Dew Point 29 °F    
Average Humidity 51    
Maximum Humidity 76    
Minimum Humidity 25    
Precipitation  
Precipitation 0.00 in 0.03 in 0.21 in (1886)
Month to date precipitation 0.25 0.22  
Year to date precipitation 16.61 12.54  
Snow  
Snow 0.00 in - - ()
Month to date snowfall T  
Since 1 July snowfall T  
Since 1 September snowfall T  
Snow Depth 0.00 in    
Sea Level Pressure  
Sea Level Pressure 30.16 in    
Wind  
Wind Speed 7 mph (South)    
Max Wind Speed 13 mph    
Max Gust Speed 16 mph    
Visibility 10 miles    
Events      
T = Trace of Precipitation, MM = Missing Value Source: NWS Daily Summary

Daily Weather History Graph

Daily Weather History Graph

Search for Another Location

Airport:

Trip Planner

Search our weather history database for the weather conditions in past years. The results will help you decide how hot, cold, wet, or windy it might be!

Date:

Astronomy

Oct. 06, 2013 Rise Set
Actual Time 7:00 AM MDT 6:32 PM MDT
Civil Twilight 6:33 AM MDT 6:59 PM MDT
Nautical Twilight 6:01 AM MDT 7:30 PM MDT
Astronomical Twilight 5:30 AM MDT 8:02 PM MDT
Moon 8:47 AM MDT (10/6) 7:33 PM MDT (10/6)
Length of Visible Light 12h 26m
Length of Day
11h 32m
Waxing Crescent, 4% of the Moon is Illuminated
Oct 6
Waxing Crescent
Oct 11
First Quarter
Oct 18
Full
Oct 26
Last Quarter
Nov 3
New

Hourly Weather History & Observations

Time (MDT) Temp. Windchill Dew Point Humidity Pressure Visibility Wind Dir Wind Speed Gust Speed Precip Events Conditions
12:53 AM 39.0 °F 32.3 °F 23.0 °F 53% 30.12 in 10.0 mi SW 10.4 mph - N/A   Clear
1:53 AM 41.0 °F 34.7 °F 21.0 °F 45% 30.12 in 10.0 mi SW 10.4 mph - N/A   Clear
2:53 AM 35.1 °F 30.1 °F 23.0 °F 61% 30.14 in 10.0 mi SSW 5.8 mph - N/A   Clear
3:53 AM 35.1 °F 31.0 °F 23.0 °F 61% 30.15 in 10.0 mi SSW 4.6 mph - N/A   Clear
4:53 AM 37.9 °F 33.5 °F 21.0 °F 51% 30.16 in 10.0 mi SW 5.8 mph - N/A   Clear
5:53 AM 42.1 °F 39.2 °F 19.0 °F 40% 30.16 in 10.0 mi SW 4.6 mph - N/A   Partly Cloudy
6:53 AM 39.9 °F 35.8 °F 19.0 °F 43% 30.19 in 10.0 mi SSW 5.8 mph - N/A   Partly Cloudy
7:53 AM 37.0 °F 31.6 °F 27.0 °F 67% 30.22 in 10.0 mi South 6.9 mph - N/A   Partly Cloudy
8:53 AM 48.9 °F - 30.9 °F 50% 30.21 in 10.0 mi SE 3.5 mph - N/A   Partly Cloudy
9:53 AM 55.0 °F - 24.1 °F 30% 30.20 in 10.0 mi SSE 9.2 mph - N/A   Partly Cloudy
10:53 AM 57.9 °F - 27.0 °F 31% 30.20 in 10.0 mi SE 6.9 mph - N/A   Partly Cloudy
11:53 AM 61.0 °F - 24.1 °F 24% 30.19 in 10.0 mi Calm Calm - N/A   Partly Cloudy
12:53 PM 64.0 °F - 28.0 °F 26% 30.16 in 10.0 mi Variable 3.5 mph - N/A   Partly Cloudy
1:53 PM 64.9 °F - 30.0 °F 27% 30.14 in 10.0 mi Variable 3.5 mph - N/A   Partly Cloudy
2:53 PM 66.9 °F - 33.1 °F 28% 30.14 in 10.0 mi NE 5.8 mph - N/A   Scattered Clouds
3:53 PM 66.9 °F - 34.0 °F 30% 30.14 in 10.0 mi NNE 11.5 mph - N/A   Scattered Clouds
4:53 PM 66.0 °F - 35.1 °F 32% 30.14 in 10.0 mi NNE 11.5 mph - N/A   Scattered Clouds
5:53 PM 64.0 °F - 37.0 °F 37% 30.14 in 10.0 mi Calm Calm - N/A   Scattered Clouds
6:53 PM 61.0 °F - 32.0 °F 34% 30.16 in 10.0 mi Calm Calm - N/A   Scattered Clouds
7:53 PM 52.0 °F - 36.0 °F 54% 30.21 in 10.0 mi SE 5.8 mph - N/A   Partly Cloudy
8:53 PM 46.9 °F - 37.0 °F 68% 30.19 in 10.0 mi South 12.7 mph - N/A   Scattered Clouds
9:53 PM 46.0 °F 40.6 °F 36.0 °F 68% 30.16 in 10.0 mi South 11.5 mph - N/A   Partly Cloudy
10:53 PM 46.0 °F 41.0 °F 36.0 °F 68% 30.14 in 10.0 mi South 10.4 mph - N/A   Partly Cloudy
11:53 PM 43.0 °F 37.2 °F 36.0 °F 76% 30.13 in 10.0 mi South 10.4 mph - N/A   Clear